www.pogodaiklimat.ru

Погода и климат >> Архив погоды >> Россия >> Приморский край >> Партизанск


ПОГОДА в Партизанске

  • Прогноз погоды в Партизанске
  • Монитор погоды в Партизанске
  • Климат города

АРХИВ ПОГОДЫ в Партизанске

Время (UTC), дата Ветер
(напр.,м/с)
 
Видим.   Явления Облачность Т
(С)
Тd
(С)
f
(%)
Тe
(С)
Тes
(С)
Комфортность P
(гПа)
Po
(гПа)
Тmin
(С)
Tmax
(С)
R
(мм)
R24
(мм)
S
(см)
06 17.05 Ю 5 50 км 4/3 1000 м
[Cu med, cong Ac cuf]
+22.3 +8.5 41 +24 +28 комфорт 1006.6 982.9
09 17.05 ЮВ 2
{11}
50 км 3/0
[Ac lent]
+18.5 +7.3 48 +19 +21 1007.6 983.6 +24.3
12 17.05 СЗ 2 50 км ясно +11.4 +7.3 76 +10 +10 1010.7 986.0
15 17.05 штиль 0 50 км ясно +10.5 +5.8 73 +10 +10 1011.3 986.5
18 17.05 С 2 50 км 3/0
[Ci]
+8.8 +5.9 82 +7 +7 1011.5 986.6
21 17.05 С 1 50 км ясно +9.6 +6.3 80 +9 +10 1012.1 987.2 +6.6
00 18.05 Ю 3 50 км ясно +16.6 +8.3 58 +16 +26 1011.3 987.1
03 18.05 Ю 3 50 км ясно +16.6 +8.3 58 +16 +32 опасность
простуды
1011.3 987.1
06 18.05 Ю 7-10
{10}
50 км 3/0
[Ci fib]
+19.1 +11.0 59 +19 +23 1010.3 986.2
09 18.05 Ю 5
{14}
50 км 10/0
[Ci fib]
+17.0 +11.2 69 +16 +17 1009.2 985.0 +20.3
12 18.05 Ю 3 50 км 10/10 600 м
[St]
+12.1 +10.2 88 +10 +10 1011.1 986.4
15 18.05 ЮЗ 3 4000 м дымка 10/10 300 м
[St]
+11.2 +9.6 90 +9 +9 1011.2 986.5
18 18.05 штиль 0 500 м туман ?/? +10.8 +9.4 91 +10 +10 1010.3 985.6
21 18.05 В 1 500 м туман ?/? +10.8 +9.4 91 +10 +10 1009.2 984.5 +10.6
00 19.05 Ю 3 20 км {туман} 10/3 600 м
[Cu hum Ci fib]
+15.6 +11.9 79 +15 +20 1007.7 983.4
03 19.05 Ю 4 50 км 4/0
[Ci fib]
+25.0 +13.1 48 +27 +39 жарко 1004.8 981.4
06 19.05 Ю 4 50 км 1/0
[Ci fib]
+27.6 +14.4 44 +30 +38 жарко 1003.2 980.0
09 19.05 Ю 2 50 км 3/0
[Ci fib]
+21.7 +12.6 56 +24 +26 комфорт 1004.7 981.0 +27.6
12 19.05 С 2 50 км 3/0
[Ci fib]
+17.2 +13.2 77 +18 +18 1007.2 983.1
15 19.05 Ю 1 50 км ясно +16.0 +11.9 77 +17 +17 1008.0 983.8
18 19.05 СЗ 2 50 км ясно +17.7 +11.7 68 +18 +18 1009.6 985.4
21 19.05 С 5 50 км 8/0
[Cc]
+20.6 +9.3 48 +22 +23 комфорт 1011.2 987.2 +15.7
00 20.05 С 4 50 км 3/0
[Ci fib]
+25.1 +6.3 30 +25 +32 комфорт 1013.1 989.4
03 20.05 С 2 50 км 6/0
[Cs]
+29.6 +3.7 19 +28 +44 жарко 1012.0 988.7
06 20.05 Ю 7-10
{11}
50 км 8/0
[Cs]
+27.9 +7.7 28 +27 +30 жарко 1010.9 987.5
09 20.05 Ю 5-11
{12}
50 км 8/3 1000 м
[Sc diur, vesp Ac lent Cc]
+22.1 +6.9 37 +23 +23 комфорт 1011.8 988.0 +32.4
12 20.05 Ю 1
{11}
50 км 10/0
[Ci fib]
+17.3 +5.2 45 +18 +18 1014.2 989.9
15 20.05 штиль 0 50 км зарница 10/3 1000 м
[Cb cap Ci fib]
+16.5 +4.4 45 +17 +17 1014.2 989.8
18 20.05 СЗ 2 10 км гроза, ливневой дождь 10/10 600 м
[Cb cap]
+14.1 +8.8 70 +14 +14 1013.6 989.0
21 20.05 С 1 50 км {гроза, ливн. осадки} 8/0
[Ac As]
+14.5 +8.3 66 +15 +16 1014.0 989.5 +11.6 0.0
00 21.05 СВ 3 50 км {гроза, ливн. осадки} 6/0
[Cs]
+18.9 +12.2 65 +20 +28 1013.8 989.7
03 21.05 СЗ 1 50 км 10/0
[Cs]
+25.1 +11.7 43 +27 +44 жарко 1012.2 988.6
06 21.05 Ю 2 50 км 10/1 1000 м
[Sc Cs]
+25.9 +11.7 41 +27 +36 жарко 1010.4 986.9
09 21.05 Ю 2 50 км 10/0
[Ac trans Cs]
+18.8 +9.1 53 +20 +21 1012.5 988.4 +26.3
12 21.05 С 4 50 км 10/1 1000 м
[Sc Ac trans Ci fib]
+16.0 +8.5 61 +15 +15 1014.8 990.4
15 21.05 С 3 50 км 9/9 600 м
[Sc]
+15.1 +7.3 60 +14 +14 1015.3 990.8
18 21.05 С 1 50 км 10/10 600 м
[Sc]
+13.2 +8.7 74 +13 +13 1016.2 991.5
21 21.05 С 3 50 км 10/6 1000 м
[Sc Ac As]
+13.2 +5.1 58 +12 +12 1017.3 992.6 +13.1
00 22.05 С 2 50 км 10/5 1000 м
[Sc Ac As]
+15.1 +5.7 53 +15 +17 1017.9 993.3
03 22.05 В 2 50 км 10/1 1000 м
[Cu hum Ac trans]
+18.1 +6.4 46 +19 +26 1016.4 992.1
06 22.05 С 2 50 км 10/5 1000 м
[Cu Sc Ac As]
+17.1 +6.6 50 +17 +19 1015.1 990.8
09 22.05 Ю 4 50 км 10/1 1000 м
[Sc Ac trans Cc]
+16.4 -0.6 31 +16 +16 1014.1 989.6 +18.3
12 22.05 ЮЗ 4 50 км 10/1 1000 м
[Sc Ac trans Ci fib]
+13.8 -3.0 31 +13 +13 1014.3 989.7
15 22.05 ЮЗ 3 50 км 10/5 1000 м
[Sc Ac As]
+13.5 -3.6 30 +13 +13 1012.7 988.1
18 22.05 ЮЗ 2 50 км 10/5 1000 м
[Sc Ac As]
+11.9 -0.6 42 +11 +11 1011.3 986.6
21 22.05 СЗ 1 50 км слабый дождь 10/1 1000 м
[Sc As op]
+9.1 +6.0 81 +9 +9 1010.7 985.8 +8.9 0.0
00 23.05 СВ 2 50 км {дождь} 10/4 300 м
[St As op]
+10.4 +7.0 79 +9 +10 1010.4 985.6
03 23.05 Ю 2 50 км 10/8 300 м
[St As op]
+13.0 +6.8 66 +12 +13 1009.6 985.1
06 23.05 Ю 2 50 км 9/9 1000 м
[Cb cap]
+13.2 +5.6 60 +13 +14 1008.7 984.2
09 23.05 Ю 3 50 км 9/3 1000 м
[Sc diur, vesp Ac trans Ci fib]
+12.4 +4.8 60 +11 +12 1008.6 984.0 +14.1 0.1
12 23.05 Ю 1 50 км 3/3 1000 м
[Sc]
+7.0 +3.8 80 +6 +6 1010.2 985.1
15 23.05 штиль 0 50 км ясно +6.0 +3.6 85 +5 +5 1010.4 985.2
18 23.05 СЗ 1 50 км ясно +5.4 +3.5 88 +4 +4 1009.8 984.6
21 23.05 штиль 0 4000 м дымка 5/3 300 м
[St Ac trans]
+5.1 +3.4 89 +4 +5 1008.6 983.4 +3.1
00 24.05 Ю 1 50 км 8/8 1000 м
[Sc Ac trans]
+11.4 +6.0 69 +11 +14 1007.2 982.6
03 24.05 Ю 8-12
{14}
50 км 8/8 600 м
[Cu Sc Ac trans]
+14.6 +9.2 70 +12 +13 1005.9 981.6

 

Местоположение метеостанции Партизанск (Приморский край, Россия): широта 43.15 долгота 133.00 высота над уровнем моря 208 м.

В архиве по умолчанию представлена погода в Партизанске за последнюю неделю. Архивные данные за месяц целиком и за предыдущие месяцы, начиная с января 2011 года, Вы можете получить, выбрав интересующий диапазон дат из раскрывающегося списка и нажав кнопку "Ввод!".

Внимание! Время в таблицах - всемирное. Для получения местного времени необходимо прибавить поправку, которая в Партизанске равна 10 ч.

Смотрите также архив погоды в соседних городах и на ближайших метеорологических станциях:

Погода в Находке (Приморский край, Россия) (42 км)
Погода в Лазо (Приморский край, Россия) (71 км)
Погода в Преображении (Приморский край, Россия) (78 км)
Погода в Владивостоке (Приморский край, Россия) (89 км)
Погода в Анучино (Приморский край, Россия) (91 км)
Погода в Тимирязевском (Приморский край, Россия) (120 км)
Погода в Чугуевке (Приморский край, Россия) (129 км)
Погода в Барабаше (Приморский край, Россия) (130 км)
Погода в Гамове (Приморский край, Россия) (160 км)
Погода в Хороль (Приморский край, Россия) (163 км)

Пояснения к столбцам:

Ветер - указаны скорость ветра в м/с - средняя за 10 мин, порывы в срок и между сроками (в фигурных скобках) и направление, откуда дует ветер: С - северный, СВ - северо-восточный, В - восточный, ЮВ - юго-восточный, Ю - южный, ЮЗ - юго-западный, З - западный, СЗ - северо-западный.
Видимость - горизонтальная дальность видимости в метрах или километрах. При видимости от 1 до 10 км при отсутствии осадков обычно наблюдается дымка, при ухудшении видимости до 1 км и менее - туман. В сухую погоду видимость может ухудшаться дымом, пылью или мглою.
Явления - указаны атмосферные явления, наблюдавшиеся в срок или в последний час перед сроком; фигурными скобками обозначены явления, наблюдавшиеся между сроками (за 1-3 часа до срока); квадратными скобками обозначены град или гололедные отложения с указанием их диаметра в мм.
Облачность - указаны через наклонную черту общая и нижняя облачность в баллах и высота нижней границы облаков в метрах; квадратными скобками обозначены формы облаков: Ci - перистые, Cs - перисто-слоистые, Cc - перисто-кучевые, Ac - высококучевые, As - высокослоистые, Sc - слоисто-кучевые, Ns - слоисто-дождевые, Cu - кучевые, Cb - кучево-дождевые. Подробнее классификацию облаков см. в Атласе облаков (PDF).
T - Температура воздуха - температура, измеренная на высоте 2 м над землей.
Td - Температура точки росы - температура, при понижении до которой содержащийся в воздухе водяной пар достигнет насыщения.
f - Относительная влажность воздуха - влажноcть воздуха, измеренная на высоте 2 м над землей.
Te - Эффективная температура - температура, которую ощущает одетый по сезону человек в тени. Характеристика душности погоды. При расчете учитывается влияние влажности воздуха и скорости ветра на теплоощущения человека.
Tes - Эффективная температура на солнце - температура, которую ощущает человек, с поправкой на солнечный нагрев. Характеристика знойности погоды. Зависит от высоты солнца над горизонтом, облачности и скорости ветра. Ночью, в пасмурную погоду, а также при ветре 12 м/с и более поправка равна нулю.
P - Атмосферное давление - приведенное к уровню моря атмосферное давление.
Po - Атмосферное давление - измеренное на уровне метеостанции атмосферное давление.
Tmin - Минимальная температура - минимум температуры воздуха на высоте 2 м над землей.
Tmax - Максимальная температура - максимум температуры воздуха на высоте 2 м над землей.
R - Количество осадков - Количество выпавших осадков за период времени, мм. При наведении курсора мыши на число - период времени, за который выпало указанное количество осадков.
R24 - Количество осадков - Количество выпавших осадков за 24 часа, мм.
S - Снежный покров - Высота снежного покрова, см. При наведении курсора мыши на число - состояние снежного покрова и степень покрытия местности в баллах.